Location: Fredericksburg
(30.2750°N, 98.8720°W)
Time: 22:31:22
(UTC-06:00)

Amateur Radio Satellites - All Passes

Search period start: 24 February 2017 22:01
Search period end: 25 February 2017 22:01
Location: Fredericksburg, 30.2750°N, 98.8720°W

Satellite Date Start Highest point End Downlink Frequencies (MHz)
Time Altitude Azimuth
DELFI C3 24 Feb 22:07:25 22:11:05 36° 261° (W) 22:14:46 145.870
JUGNU 24 Feb 22:18:24 22:23:16 27° 173° (S) 22:28:08 437.505
UNISAT 6 24 Feb 22:31:09 22:35:50 68° 101° (E) 22:40:25 437.425
TIGRISAT 24 Feb 22:31:41 22:36:20 63° 100° (E) 22:40:54 435.000
PRISM 24 Feb 22:33:23 22:37:09 37° 286° (WNW) 22:40:54 437.425
O/OREOS (USA 219) 24 Feb 22:35:33 22:39:44 43° 105° (ESE) 22:43:59 437.305
YUBILEINY 24 Feb 22:41:19 22:50:00 72° 267° (W) 22:58:36 435.215
LO-87 24 Feb 23:02:00 23:05:31 73° 258° (WSW) 23:09:04 145.935 - 145.965
SRMSAT 24 Feb 23:17:06 23:21:09 19° 165° (SSE) 23:25:13 437.500
DUCHIFAT 1 24 Feb 23:29:28 23:32:12 17° 95° (E) 23:34:56 145.980
SO-50 24 Feb 23:30:29 23:33:55 20° 306° (NW) 23:37:21 436.795
50 SAT 24 Feb 23:34:27 23:36:44 17° 72° (ENE) 23:39:01 437.505
EO-79 24 Feb 23:38:46 23:42:25 27° 97° (E) 23:46:02 145.935-145.965
ESTCUBE 1 24 Feb 23:38:48 23:43:16 62° 259° (W) 23:47:44 437.505/2401.250
FO-29 24 Feb 23:41:47 23:49:14 67° 286° (WNW) 23:55:54 435.910
POLYITAN 1 24 Feb 23:55:42 23:59:50 45° 100° (E) 00:03:55 437.675
NANOSAT C BR1 24 Feb 23:55:48 23:59:50 40° 99° (E) 00:03:50 145.865
QB50P2 24 Feb 23:58:35 00:02:46 54° 100° (E) 00:06:57 145.880/145.840
DX 1 25 Feb 00:00:59 00:04:36 27° 72° (ENE) 00:08:14 434.975-435.025
VELOX 1 25 Feb 00:06:42 00:11:04 82° 77° (ENE) 00:15:28 145.980
JUGNU 25 Feb 00:06:48 00:11:47 29° 184° (S) 00:16:48 437.505
AIST 2D 25 Feb 00:10:21 00:13:47 49° 284° (WNW) 00:17:12 435.315
UKube-1 25 Feb 00:14:14 00:17:50 26° 72° (ENE) 00:21:26 .
O/OREOS (USA 219) 25 Feb 00:17:13 00:19:19 13° 299° (WNW) 00:21:27 437.305
SPROUT 25 Feb 00:19:04 00:23:18 89° 268° (W) 00:27:34 437.525
BUGSAT 1 25 Feb 00:28:05 00:31:43 27° 98° (E) 00:35:21 437.445
RS-15 25 Feb 00:30:47 00:36:31 14° 28° (NNE) 00:42:09 29.354- 29.394
NO-84 25 Feb 00:35:10 00:38:33 23° 43° (NE) 00:42:02 435.350 FM
DUCHIFAT 1 25 Feb 01:04:09 01:07:50 29° 287° (WNW) 01:11:30 145.980
SRMSAT 25 Feb 01:04:45 01:09:48 29° 175° (S) 01:14:52 437.500
50 SAT 25 Feb 01:07:09 01:09:40 18° 263° (W) 01:12:12 437.505
Oscar 19 25 Feb 01:14:34 01:18:45 25° 97° (E) 01:22:56 437.125/150
EO-79 25 Feb 01:14:58 01:17:56 19° 290° (WNW) 01:20:53 145.935-145.965
NANOSAT C BR1 25 Feb 01:33:19 01:35:07 13° 292° (WNW) 01:36:57 145.865
POLYITAN 1 25 Feb 01:33:44 01:35:08 11° 292° (WNW) 01:36:34 437.675
DX 1 25 Feb 01:37:39 01:40:42 19° 264° (W) 01:43:46 434.975-435.025
ITUPSAT 1 25 Feb 01:41:42 01:44:37 16° 68° (ENE) 01:47:33 437.325
BEESAT 25 Feb 01:48:06 01:51:29 20° 69° (ENE) 01:54:53 436.000
UKube-1 25 Feb 01:50:46 01:53:47 19° 264° (W) 01:56:49 .
Gurwin Techsat 1B 25 Feb 01:55:02 01:59:54 36° 99° (E) 02:04:44 435.225
JUGNU 25 Feb 01:56:04 02:00:17 20° 193° (SSW) 02:04:32 437.505
PCSat 25 Feb 01:58:19 02:03:30 44° 62° (ENE) 02:08:39 145.827
BUGSAT 1 25 Feb 02:03:57 02:06:49 18° 290° (WNW) 02:09:42 437.445
NO-84 25 Feb 02:12:19 02:16:20 38° 235° (SW) 02:20:27 435.350 FM
MOZHAYETS 4 25 Feb 02:15:09 02:16:37 11° 67° (ENE) 02:18:05
RS-15 25 Feb 02:41:00 02:52:53 52° 56° (NE) 03:04:11 29.354- 29.394
AO-7 25 Feb 02:52:31 02:58:17 20° 96° (E) 03:04:00 .
SRMSAT 25 Feb 02:53:27 02:58:32 29° 185° (S) 03:03:37 437.500
Oscar 19 25 Feb 02:53:38 02:57:57 28° 289° (WNW) 03:02:15 437.125/150
ITUPSAT 1 25 Feb 03:17:34 03:22:04 40° 261° (W) 03:26:35 437.325
BEESAT 25 Feb 03:24:43 03:28:58 32° 261° (W) 03:33:16 436.000
ITAMSAT 1 25 Feb 03:25:48 03:30:50 47° 100° (E) 03:35:50 435.822/435.867
AO-85 25 Feb 03:32:21 03:36:05 23° 112° (ESE) 03:39:37 145.980
Gurwin Techsat 1B 25 Feb 03:35:34 03:39:33 22° 291° (WNW) 03:43:31 435.225
PCSat 25 Feb 03:42:54 03:46:29 18° 255° (WSW) 03:50:02 145.827
MOZHAYETS 4 25 Feb 03:48:43 03:53:14 54° 260° (W) 03:57:47
KKS-1 25 Feb 04:22:21 04:26:46 86° 78° (ENE) 04:31:12 437.445
SRMSAT 25 Feb 04:43:02 04:47:12 19° 194° (SSW) 04:51:21 437.500
AO-7 25 Feb 04:43:14 04:51:26 67° 290° (WNW) 04:59:36 .
CUBESAT XI-V 25 Feb 04:46:56 04:51:36 89° 252° (WSW) 04:56:17 437.345
RS-15 25 Feb 04:54:07 05:04:54 40° 254° (WSW) 05:15:15 29.354- 29.394
STARS 25 Feb 04:57:25 05:01:45 88° 254° (WSW) 05:06:09 437.465
ITAMSAT 1 25 Feb 05:06:41 05:09:51 16° 293° (WNW) 05:13:01 435.822/435.867
AO-85 25 Feb 05:12:25 05:16:21 27° 302° (WNW) 05:20:04 145.980
M-CUBED/EXP-1 PRIME 25 Feb 05:32:30 05:35:34 33° 256° (WSW) 05:38:33 437.505
CUTE-I 25 Feb 06:11:09 06:15:50 30° 98° (E) 06:20:29 437.470
KAITUO 1B 25 Feb 06:27:10 06:30:41 38° 99° (E) 06:34:09 145.475/437.950
XW-2F 25 Feb 06:31:17 06:35:01 55° 100° (E) 06:38:42 145.980 - 146.000
BEESAT 3 25 Feb 06:31:39 06:35:28 62° 298° (WNW) 06:39:21 437.485
XW-2D 25 Feb 06:35:43 06:39:31 70° 101° (E) 06:43:16 145.860 - 145.880
XW-2B 25 Feb 06:40:45 06:44:34 80° 101° (ESE) 06:48:20 145.730 - 145.750
AO-7 25 Feb 06:41:15 06:42:39 10° 307° (NW) 06:44:02 .
STRAND 1 25 Feb 06:42:32 06:47:10 36° 72° (ENE) 06:51:50 437.568
DOVE 4 25 Feb 06:48:27 06:53:17 78° 282° (WNW) 06:58:21 437.250
XW-2C 25 Feb 06:49:23 06:53:11 75° 284° (WNW) 06:56:57 145.795 - 145.815
ISS 25 Feb 06:53:46 06:56:25 23° 128° (SE) 06:59:04 437.550
NUDT-PHONESAT 25 Feb 07:02:15 07:05:58 61° 283° (WNW) 07:09:37 437.300
LilacSat-2 25 Feb 07:06:09 07:09:46 40° 285° (WNW) 07:13:19 437.200
BEESAT 2 25 Feb 07:09:19 07:13:11 60° 299° (WNW) 07:17:06 435.950
Tancredo 1 25 Feb 07:19:26 07:22:37 52° 131° (SE) 07:25:47 437.200
CUTE 1.7 + AOD 2 25 Feb 07:28:52 07:32:22 25° 97° (E) 07:35:49 437.475
HO-68 25 Feb 07:31:49 07:38:20 37° 99° (E) 07:44:49 435.675
CUBEBUG 2 25 Feb 07:45:18 07:48:35 19° 94° (E) 07:51:50 437.445
CUTE-I 25 Feb 07:51:18 07:55:41 26° 291° (WNW) 08:00:03 437.470
SO-50 25 Feb 08:05:44 08:10:14 80° 64° (ENE) 08:14:41 436.795
AAUSAT CUBESAT 2 25 Feb 08:16:18 08:19:49 28° 97° (E) 08:23:21 437.432
XW-2A 25 Feb 08:18:44 08:21:49 31° 286° (WNW) 08:24:54 145.665 - 145.685
UWE-3 25 Feb 08:22:28 08:26:31 29° 97° (E) 08:30:29 435.000/436.395/437.385
STRAND 1 25 Feb 08:22:40 08:26:21 20° 264° (W) 08:30:03 437.568
SEEDS 25 Feb 08:25:57 08:30:08 90° 87° (E) 08:34:17 437.485
ISS 25 Feb 08:30:08 08:32:47 22° 321° (NW) 08:35:27 437.550
ZACube-1 25 Feb 08:43:58 08:47:55 29° 97° (E) 08:51:46 437.345
O/OREOS (USA 219) 25 Feb 08:51:14 08:55:21 33° 67° (ENE) 08:59:29 437.305
Tancredo 1 25 Feb 08:57:40 08:59:07 12° 326° (NW) 09:00:33 437.200
CUTE 1.7 + AOD 2 25 Feb 09:05:02 09:07:58 19° 289° (WNW) 09:10:53 437.475
PRISM 25 Feb 09:16:22 09:20:24 65° 77° (ENE) 09:24:26 437.425
HO-68 25 Feb 09:19:40 09:25:51 33° 293° (WNW) 09:32:02 435.675
CUBEBUG 2 25 Feb 09:20:56 09:25:11 33° 287° (WNW) 09:29:21 437.445
UNISAT 6 25 Feb 09:24:26 09:28:15 28° 72° (ENE) 09:32:09 437.425
TIGRISAT 25 Feb 09:24:54 09:28:37 26° 71° (ENE) 09:32:24 435.000
AO-73 25 Feb 09:32:04 09:36:35 78° 284° (WNW) 09:40:59 145.935
Oscar 11 25 Feb 09:38:58 09:43:17 74° 283° (WNW) 09:47:33 .
YUBILEINY 25 Feb 09:40:09 09:47:04 27° 85° (E) 09:53:57 435.215
FO-29 25 Feb 09:46:28 09:52:32 33° 67° (ENE) 09:59:04 435.910
DELFI C3 25 Feb 09:50:00 09:53:40 38° 99° (E) 09:57:19 145.870
AAUSAT CUBESAT 2 25 Feb 09:52:28 09:55:01 16° 290° (WNW) 09:57:34 437.432
UWE-3 25 Feb 09:59:21 10:02:42 20° 290° (WNW) 10:06:01 435.000/436.395/437.385
ZACube-1 25 Feb 10:20:44 10:23:55 19° 290° (WNW) 10:27:04 437.345
O/OREOS (USA 219) 25 Feb 10:31:32 10:34:26 17° 260° (W) 10:37:21 437.305
LO-87 25 Feb 10:36:12 10:37:56 13° 95° (E) 10:39:39 145.935 - 145.965
AIST 2D 25 Feb 10:39:39 10:42:21 21° 73° (ENE) 10:45:03 435.315
NANOSAT C BR1 25 Feb 10:43:38 10:45:56 15° 69° (ENE) 10:48:17 145.865
POLYITAN 1 25 Feb 10:43:44 10:46:23 16° 70° (ENE) 10:49:03 437.675
QB50P2 25 Feb 10:46:19 10:49:18 19° 70° (ENE) 10:52:19 145.880/145.840
UNISAT 6 25 Feb 11:01:44 11:04:55 19° 265° (W) 11:08:09 437.425
TIGRISAT 25 Feb 11:01:53 11:05:12 21° 265° (W) 11:08:36 435.000
DELFI C3 25 Feb 11:27:06 11:28:03 11° 291° (WNW) 11:28:59 145.870
FO-29 25 Feb 11:30:54 11:37:13 40° 263° (W) 11:44:14 435.910
YUBILEINY 25 Feb 11:34:44 11:43:16 53° 280° (W) 11:51:48 435.215
ESTCUBE 1 25 Feb 11:37:03 11:41:17 41° 100° (E) 11:45:30 437.505/2401.250
DUCHIFAT 1 25 Feb 11:49:16 11:53:27 88° 258° (WSW) 11:57:41 145.980
EO-79 25 Feb 12:00:12 12:04:17 51° 260° (W) 12:08:25 145.935-145.965
VELOX 1 25 Feb 12:02:57 12:06:32 24° 97° (E) 12:10:06 145.980
LO-87 25 Feb 12:08:21 12:11:20 25° 287° (WNW) 12:14:20 145.935 - 145.965
SPROUT 25 Feb 12:11:03 12:14:32 24° 97° (E) 12:18:00 437.525
AIST 2D 25 Feb 12:13:22 12:15:28 15° 265° (W) 12:17:36 435.315
NANOSAT C BR1 25 Feb 12:17:32 12:21:19 33° 262° (W) 12:25:09 145.865
POLYITAN 1 25 Feb 12:18:10 12:21:52 30° 262° (W) 12:25:37 437.675
QB50P2 25 Feb 12:21:22 12:24:52 25° 263° (W) 12:28:25 145.880/145.840
Oscar 19 25 Feb 12:26:14 12:30:03 21° 69° (ENE) 12:33:52 437.125/150
50 SAT 25 Feb 12:36:33 12:39:48 39° 99° (E) 12:43:03 437.505
BUGSAT 1 25 Feb 12:46:32 12:50:27 52° 260° (W) 12:54:27 437.445
Gurwin Techsat 1B 25 Feb 13:10:34 13:15:15 33° 71° (ENE) 13:19:56 435.225
ESTCUBE 1 25 Feb 13:15:31 13:17:40 13° 292° (WNW) 13:19:48 437.505/2401.250
DX 1 25 Feb 13:29:54 13:34:14 70° 284° (WNW) 13:38:34 434.975-435.025
VELOX 1 25 Feb 13:39:24 13:42:48 22° 289° (WNW) 13:46:13 145.980
UKube-1 25 Feb 13:41:53 13:46:11 73° 284° (WNW) 13:50:28 .
AO-7 25 Feb 13:46:32 13:51:45 18° 58° (ENE) 13:56:58 .
SPROUT 25 Feb 13:47:01 13:50:15 21° 289° (WNW) 13:53:30 437.525
AO-85 25 Feb 13:48:22 13:52:08 45° 61° (ENE) 13:56:01 145.980
Oscar 19 25 Feb 14:04:26 14:09:05 34° 261° (W) 14:13:45 437.125/150
ITAMSAT 1 25 Feb 14:38:06 14:42:55 40° 72° (ENE) 14:47:46 435.822/435.867
Gurwin Techsat 1B 25 Feb 14:50:59 14:55:08 23° 264° (W) 14:59:18 435.225
PCSat 25 Feb 14:54:10 14:56:21 12° 103° (ESE) 14:58:32 145.827
BEESAT 3 25 Feb 14:55:24 14:57:14 13° 53° (NE) 14:59:03 437.485
ISS 25 Feb 15:02:00 15:04:41 23° 39° (NE) 15:07:21 437.550
ITUPSAT 1 25 Feb 15:23:24 15:28:13 83° 103° (ESE) 15:32:59 437.325
Tancredo 1 25 Feb 15:27:02 15:30:08 45° 43° (NE) 15:33:12 437.200
BEESAT 25 Feb 15:29:55 15:34:42 82° 285° (WNW) 15:39:27 436.000
BEESAT 2 25 Feb 15:33:44 15:35:51 14° 53° (NE) 15:37:56 435.950
AO-7 25 Feb 15:35:09 15:43:31 81° 254° (WSW) 15:51:55 .
MOZHAYETS 4 25 Feb 15:49:24 15:53:54 55° 100° (E) 15:58:22
NO-84 25 Feb 15:50:03 15:52:12 18° 121° (ESE) 15:54:27 435.350 FM
ITAMSAT 1 25 Feb 16:18:59 16:22:27 18° 265° (W) 16:25:57 435.822/435.867
KKS-1 25 Feb 16:19:27 16:23:10 25° 98° (E) 16:26:52 437.445
BEESAT 3 25 Feb 16:31:13 16:35:00 41° 247° (WSW) 16:38:44 437.485
PCSat 25 Feb 16:33:47 16:39:07 62° 296° (WNW) 16:44:29 145.827
ISS 25 Feb 16:38:28 16:41:02 21° 232° (SW) 16:43:35 437.550
CUBESAT XI-V 25 Feb 16:49:29 16:53:40 34° 98° (E) 16:57:50 437.345
STARS 25 Feb 16:52:53 16:56:35 26° 98° (E) 17:00:17 437.465
RS-15 25 Feb 16:55:29 17:06:49 58° 110° (ESE) 17:18:38 29.354- 29.394
XW-2F 25 Feb 17:08:37 17:10:07 12° 70° (ENE) 17:11:38 145.980 - 146.000
BEESAT 2 25 Feb 17:09:59 17:13:46 39° 247° (WSW) 17:17:29 435.950
XW-2D 25 Feb 17:12:41 17:14:52 15° 70° (ENE) 17:17:04 145.860 - 145.880
M-CUBED/EXP-1 PRIME 25 Feb 17:15:33 17:18:37 21° 103° (ESE) 17:21:49 437.505
XW-2B 25 Feb 17:17:26 17:19:54 17° 71° (ENE) 17:22:22 145.730 - 145.750
XW-2C 25 Feb 17:25:32 17:28:29 21° 72° (ENE) 17:31:27 145.795 - 145.815
NO-84 25 Feb 17:27:13 17:29:40 21° 318° (NW) 17:32:16 435.350 FM
CUTE-I 25 Feb 17:27:29 17:31:58 28° 70° (ENE) 17:36:28 437.470
MOZHAYETS 4 25 Feb 17:29:23 17:30:30 11° 293° (WNW) 17:31:38
AO-7 25 Feb 17:35:09 17:37:06 11° 267° (W) 17:39:03 .
NUDT-PHONESAT 25 Feb 17:36:24 17:39:25 23° 73° (ENE) 17:42:26 437.300
LilacSat-2 25 Feb 17:41:58 17:45:32 37° 75° (ENE) 17:49:08 437.200
DOVE 4 25 Feb 17:48:49 17:52:50 50° 76° (ENE) 17:56:51 437.250
KKS-1 25 Feb 17:56:08 17:59:31 22° 290° (WNW) 18:02:55 437.445
HO-68 25 Feb 17:56:59 18:00:50 15° 61° (ENE) 18:04:39 435.675
CUBESAT XI-V 25 Feb 18:27:50 18:30:43 17° 291° (WNW) 18:33:37 437.345
STARS 25 Feb 18:29:26 18:32:43 21° 290° (WNW) 18:36:01 437.465
KAITUO 1B 25 Feb 18:34:56 18:38:35 47° 260° (W) 18:42:16 145.475/437.950
XW-2F 25 Feb 18:40:27 18:43:54 32° 262° (W) 18:47:23 145.980 - 146.000
XW-2A 25 Feb 18:44:30 18:47:23 27° 74° (ENE) 18:50:19 145.665 - 145.685
XW-2D 25 Feb 18:45:32 18:48:46 26° 263° (W) 18:52:04 145.860 - 145.880
M-CUBED/EXP-1 PRIME 25 Feb 18:49:50 18:52:55 22° 291° (WNW) 18:56:11 437.505
XW-2B 25 Feb 18:50:45 18:53:51 23° 263° (W) 18:56:59 145.730 - 145.750
STRAND 1 25 Feb 18:59:31 19:03:12 20° 96° (E) 19:06:52 437.568
XW-2C 25 Feb 18:59:55 19:02:34 18° 264° (W) 19:05:14 145.795 - 145.815
CUTE-I 25 Feb 19:07:26 19:11:52 27° 263° (W) 19:16:22 437.470
RS-15 25 Feb 19:08:55 19:19:41 38° 309° (NW) 19:30:54 29.354- 29.394
NUDT-PHONESAT 25 Feb 19:10:57 19:13:16 16° 265° (W) 19:15:35 437.300
SEEDS 25 Feb 19:12:03 19:15:40 28° 73° (ENE) 19:19:16 437.485
UWE-3 25 Feb 19:15:38 19:17:22 12° 67° (ENE) 19:19:07 435.000/436.395/437.385
LilacSat-2 25 Feb 19:19:42 19:19:55 10° 267° (W) 19:20:09 437.200
ZACube-1 25 Feb 19:35:59 19:37:37 12° 67° (ENE) 19:39:16 437.345
HO-68 25 Feb 19:40:29 19:47:40 80° 255° (WSW) 19:54:52 435.675
CUTE 1.7 + AOD 2 25 Feb 19:50:23 19:54:34 56° 260° (W) 19:58:46 437.475
CUBEBUG 2 25 Feb 20:12:20 20:16:42 79° 258° (WSW) 20:21:14 437.445
JUGNU 25 Feb 20:15:48 20:19:41 18° 165° (SSE) 20:23:34 437.505
XW-2A 25 Feb 20:19:58 20:20:11 10° 266° (W) 20:20:23 145.665 - 145.685
AO-73 25 Feb 20:21:27 20:25:32 38° 73° (ENE) 20:29:42 145.935
Oscar 11 25 Feb 20:27:48 20:31:50 39° 74° (ENE) 20:35:53 .
DELFI C3 25 Feb 20:32:39 20:33:25 10° 69° (ENE) 20:34:10 145.870
AAUSAT CUBESAT 2 25 Feb 20:35:07 20:39:10 52° 260° (W) 20:43:14 437.432
STRAND 1 25 Feb 20:37:43 20:42:23 36° 288° (WNW) 20:47:02 437.568
SEEDS 25 Feb 20:48:31 20:51:17 17° 265° (W) 20:54:05 437.485
UWE-3 25 Feb 20:49:05 20:53:18 47° 261° (W) 20:57:40 435.000/436.395/437.385
PRISM 25 Feb 21:04:55 21:07:00 14° 95° (E) 21:09:05 437.425
ZACube-1 25 Feb 21:09:08 21:13:22 48° 261° (W) 21:17:44 437.345
RS-15 25 Feb 21:35:10 21:37:24 11° 340° (NNW) 21:39:38 29.354- 29.394
